Dewpoint
-14 -14 -13 -13 -11 -12 -13 -13 -12 -12 -12 -11 -11 -11 -11 -11 -11 -11 -11 -10 -10 -10 -9 -8 -8 -8 -8 -8 -7 -7 -7 -7 -7 -7 -6 -5 -6 -5 -5 -5 -6 -8 -8 -9 -8 -9 -9 -9 -8 -8 -9 -8 -7 -6 -5 0 -4 -5 -5 -6 -6 -5 8
-13 -12 -12 -13 -13 -13 -12 -12 -12 -12 -11 -11 -10 -11 -11 -11 -11 -11 -11 -11 -11 -10 -8 -8 -7 -8 -8 -8 -7 -7 -7 -7 -7 -6 -6 -6 -6 -6 -6 -6 -7 -8 -9 -9 -10 -10 -9 -9 -8 -9 -8 -7 -7 -7 -5 -4 -5 -6 -6 -6 -4 -2 -3
-12 -12 -12 -12 -12 -12 -12 -12 -11 -11 -10 -9 -9 -10 -10 -10 -11 -11 -11 -10 -10 -10 -9 -8 -8 -8 -8 -8 -8 -8 -7 -7 -7 -6 -6 -7 -6 -6 -7 -7 -7 -7 -8 -9 -10 -10 -10 -10 -10 -10 -9 -9 -7 -5 -6 -5 -4 -4 -3 -3 -3 -3 -4
-12 -12 -12 -12 -12 -12 -11 -11 -10 -10 -10 -9 -10 -10 -9 -9 -9 -10 -9 -8 -9 -9 -9 -8 -9 -9 -8 -8 -8 -8 -7 -7 -6 -6 -6 -6 -6 -6 -6 -8 -8 -8 -7 -8 -9 -10 -10 -10 -10 -10 -9 -8 -6 -6 -5 -4 -2 -2 -1 -1 -0 -1 -3
-10 -11 -11 -12 -11 -11 -11 -10 -10 -10 -10 -10 -10 -10 -9 -9 -8 -8 -8 -8 -9 -7 -8 -8 -8 -8 -8 -8 -9 -8 -8 -7 -8 -8 -7 -7 -7 -7 -7 -7 -7 -8 -7 -8 -9 -10 -10 -10 -10 -10 -10 -8 -8 -7 -5 -4 -3 -2 -1 -1 -1 -0 -2
-11 -10 -10 -10 -10 -10 -10 -10 -10 -10 -10 -10 -10 -10 -9 -8 -8 -9 -8 -8 -9 -9 -8 -9 -9 -9 -8 -9 -9 -9 -9 -9 -9 -9 -8 -8 -8 -7 -7 -7 -8 -8 -8 -8 -9 -10 -11 -10 -11 -11 -10 -10 -8 -7 -7 -5 -3 -2 -2 -1 -2 -1 -0
-11 -9 -10 -10 -9 -9 -9 -9 -9 -9 -9 -9 -9 -9 -8 -8 -9 -9 -9 -9 -9 -9 -9 -8 -8 -8 -8 -9 -9 -9 -9 -9 -10 -9 -9 -8 -9 -8 -8 -8 -8 -8 -8 -8 -9 -9 -10 -11 -10 -10 -11 -10 -9 -8 -8 -8 -6 -5 -3 -2 -2 -2 -1
-10 -10 -9 -9 -9 -8 -9 -9 -9 -9 -9 -9 -9 -9 -9 -9 -9 -9 -10 -9 -9 -8 -8 -8 -8 -8 -8 -8 -8 -8 -9 -9 -9 -9 -9 -8 -8 -8 -9 -9 -9 -8 -8 -8 -9 -10 -11 -11 -11 -11 -11 -10 -9 -8 -7 -6 -7 -7 -6 -4 -2 -2 -2
-9 -9 -9 -9 -9 -9 -9 -9 -9 -9 -9 -10 -9 -9 -9 -9 -9 -8 -8 -8 -8 -7 -7 -7 -7 -7 -7 -6 -4 -4 -4 -4 -4 -8 -9 -9 -8 -9 -8 -9 -9 -9 -9 -9 -9 -10 -9 -10 -11 -11 -11 -10 -10 -9 -9 -8 -7 -5 -5 -4 -4 -2 -1
-9 -9 -9 -9 -9 -9 -10 -10 -10 -7 -2 5 -1 -2 -2 -2 -2 -2 -2 -3 -3 -4 -4 -4 -5 -5 -3 -2 -1 -1 -1 -0 -0 -0 -2 -3 -4 -5 -6 -7 -8 -8 -9 -8 -9 -9 -9 -10 -10 -10 -11 -11 -10 -9 -8 -8 -7 -8 -8 -6 -6 -4 -2
-8 -10 -9 -10 -10 -10 -10 -10 -10 -3 9 10 7 -3 -2 0 -0 -1 -2 -3 -3 -4 -4 -4 -4 -5 -4 -2 -2 -3 -2 -2 -1 -1 -0 0 0 -0 -3 -4 -5 -6 -7 -7 -8 -8 -9 -9 -10 -9 -9 -9 -9 -9 -9 -9 -8 -8 -7 -7 -7 -8 -5
-10 -10 -10 -10 -11 -11 -10 -10 -6 8 10 10 6 8 -0 -1 -1 -2 -2 -3 -4 -5 -5 -5 -6 -6 -6 -6 -6 -5 -5 -3 -2 -1 -1 -0 0 1 2 5 -2 -3 -4 -5 -6 -7 -8 -8 -9 -8 -8 -7 -7 -7 -7 -7 -7 -6 -6 -7 -7 -6 -7
-8 -9 -10 -10 -10 -11 -10 -11 2 8 10 9 6 7 -0 -3 -2 -2 -3 -4 -5 -6 -7 -7 -7 -8 -8 -8 -4 -4 -5 -5 -5 -2 -2 -2 -2 -1 0 7 8 7 -1 -1 -2 -3 -5 -5 -6 -6 -6 -5 -6 -5 -6 -6 -6 -6 -5 -5 -6 -6 -6
-10 -9 -10 -11 -11 -11 -11 -11 -7 7 9 11 8 5 -0 -1 -1 -2 -4 -6 -7 -8 -9 -9 -9 -9 -9 -9 -8 -8 -8 -8 -8 -8 -8 -7 -7 -6 -4 -1 3 2 1 1 -0 -1 -1 -0 -1 -2 -2 -2 0 -3 -5 -5 -6 -5 -5 -5 -5 -5 -4
-11 -11 -11 -11 -12 -12 -12 -12 2 8 9 10 5 1 4 -2 -2 -4 -7 -8 -9 -9 -9 -9 -9 -9 -9 -9 -9 -8 -7 -7 -7 -7 -7 -7 -7 -6 -6 -5 -4 -4 -3 -3 -2 -2 -2 -1 -0 -0 0 1 1 -0 -1 -2 -3 -3 -4 -3 -2 -2 -1
-11 -11 -11 -11 -12 -12 -12 -12 5 7 9 10 6 8 -2 -2 -4 -6 -8 -8 -9 -9 -8 -8 -8 -8 -9 -9 -8 -6 3 2 -2 -3 -3 -3 -3 -3 -2 -2 3 7 7 3 -0 -1 -1 -1 -0 7 1 1 1 1 1 1 1 0 -1 -2 -3 -3 -3
-10 -10 -10 -11 -12 -12 -12 -12 -2 6 8 9 5 1 -4 -4 -5 -6 -7 -9 -9 -9 -9 -9 -8 -9 -8 -8 -8 -5 6 7 1 -1 -1 -1 -2 -1 -1 -1 -0 8 11 11 12 12 13 12 11 11 13 13 13 9 6 2 0 -0 -0 -1 -3 -3 -3
-10 -10 -10 -11 -12 -12 -13 -13 -7 5 7 9 3 -1 -5 -5 -6 -7 -7 -8 -9 -8 -8 -8 -4 -3 -5 -6 -5 4 6 8 2 -1 -2 -2 -2 -3 -2 -2 -0 0 2 10 11 12 12 11 11 12 12 12 13 13 11 6 4 2 1 -1 -2 -3 -3
-11 -11 -11 -12 -12 -10 -11 -12 -10 4 6 7 7 -7 -5 -4 -5 -8 -9 -8 -9 -8 -8 -7 -5 -3 -3 -3 -1 6 7 7 2 -2 -3 -2 -2 -2 -2 -1 -0 -1 -1 -0 -2 -4 -4 -4 1 -2 -2 -1 1 7 6 2 2 2 5 2 -0 -1 -2
-12 -12 -12 -12 -13 -14 -13 -14 -14 -11 5 6 8 -0 -6 -4 -6 -8 -9 -9 -9 -9 -9 -8 -7 -3 -2 4 5 6 7 8 7 0 -1 -0 -2 -3 -5 -3 -2 -0 -2 -4 -6 -7 -7 -7 -6 -5 -4 -3 -2 -1 0 1 1 2 2 3 4 2 0
-13 -14 -14 -14 -13 -14 -14 -14 -15 -13 4 5 7 -1 -1 -7 -6 -7 -7 -8 -8 -8 -8 -6 -8 -9 -6 0 5 4 8 6 8 7 -1 -2 -4 -4 -1 3 -4 -5 -4 -9 -9 -10 -10 -10 -9 -8 -7 -5 -4 -2 -1 1 2 2 3 3 3 3 3
-14 -14 -14 -14 -14 -15 -15 -14 -12 -14 -2 4 6 6 -6 -7 -6 -4 -5 -6 -6 -7 -7 -8 -10 -13 -9 -7 3 -2 2 6 5 6 -1 -4 5 6 5 -4 -6 -9 -10 -11 -12 -12 -12 -12 -11 -10 -9 -8 -6 -3 0 2 4 4 4 5 6 5 4
-16 -16 -16 -16 -15 -15 -15 -15 -15 -12 -13 -4 6 7 5 -4 -0 3 -10 -7 -7 -8 -8 -11 -12 -11 -8 -6 3 -2 3 4 4 2 -2 2 1 5 -0 -6 -12 -11 -13 -13 -13 -13 -14 -13 -13 -12 -12 -10 -8 -5 -2 -1 1 2 4 5 6 8 8
-16 -16 -17 -17 -17 -16 -16 -16 -16 -12 -11 -11 -0 6 7 6 6 1 -5 -5 -7 -10 -11 -12 -13 -12 2 4 -1 -1 -1 2 -2 -3 5 5 3 -7 -7 -11 -13 -14 -14 -13 -14 -14 -15 -15 -14 -13 -12 -11 -10 -8 -6 -3 0 4 7 7 6 7 8
-16 -17 -17 -17 -17 -17 -16 -16 -16 -16 -14 -11 -10 4 6 6 6 0 -4 -8 -10 -10 -11 -8 2 -9 -6 1 1 3 2 -5 -9 -5 -6 -8 -8 -9 -15 -14 -15 -14 -14 -15 -16 -15 -15 -15 -14 -12 -11 -10 -8 -6 -5 -3 -4 -2 -0 3 8 7 7
-16 -16 -17 -17 -17 -17 -17 -16 -16 -16 -17 -13 -11 -11 -1 4 -2 -5 -6 -7 -9 -7 -7 -4 0 -7 -7 -6 -6 -9 -13 -13 -12 -10 -11 -11 -11 -16 -15 -15 -15 -15 -15 -16 -16 -15 -15 -14 -14 -13 -12 -11 -10 -10 -9 -7 -4 -3 -1 1 4 5 6
-16 -17 -17 -17 -17 -17 -17 -16 -16 -16 -16 -16 -16 -15 -14 -13 -12 -9 -8 -9 -10 -8 -10 -10 -9 -8 -6 -9 -11 -12 -13 -14 -14 -15 -16 -18 -18 -17 -16 -15 -15 -15 -16 -15 -15 -15 -15 -14 -14 -13 -13 -13 -12 -10 -9 -6 -4 -3 -2 1 5 5 4
-17 -17 -16 -17 -16 -16 -15 -15 -14 -14 -15 -15 -15 -14 -14 -13 -12 -12 -13 -13 -12 -12 -11 -9 -8 -15 -19 -19 -20 -21 -24 -24 -22 -18 -17 -19 -20 -18 -16 -15 -14 -14 -15 -15 -15 -15 -14 -14 -14 -15 -14 -12 -10 -9 -7 -6 -5 -4 -3 1 4 4 3
-14 -13 -14 -13 -13 -13 -13 -13 -12 -12 -8 -11 -8 -10 -9 -8 -9 -9 -9 -6 -5 -8 -16 -18 -21 -22 -23 -26 -23 -24 -25 -25 -25 -22 -21 -21 -21 -19 -18 -18 -18 -18 -17 -17 -16 -17 -17 -17 -16 -16 -14 -13 -14 -12 -11 -9 -7 -5 -3 -1 2 4 4
-5 -5 -6 -6 -6 -8 -11 -11 -10 -4 2 -0 -1 1 -2 -4 -2 -4 -6 -7 -9 -14 -24 -29 -30 -28 -28 -27 -28 -27 -26 -25 -26 -24 -23 -22 -19 -20 -20 -19 -18 -18 -18 -18 -18 -18 -18 -18 -16 -16 -16 -16 -15 -14 -12 -10 -6 -7 -5 -3 -1 4 4
7 7 -0 -3 -5 -4 -4 -5 -6 -6 1 2 0 1 -3 -2 -5 -5 -6 -10 -18 -24 -28 -27 -28 -28 -28 -28 -29 -28 -27 -26 -25 -24 -23 -23 -22 -22 -21 -20 -19 -20 -19 -19 -19 -19 -18 -17 -16 -17 -17 -17 -16 -15 -14 -12 -9 -8 -7 -4 2 5 4
6 6 5 -1 -4 -5 -5 -5 -6 -6 2 2 2 -0 -0 -1 -4 -2 -5 -14 -19 -28 -30 -32 -31 -31 -30 -29 -29 -27 -25 -26 -26 -25 -25 -24 -23 -23 -22 -21 -21 -20 -20 -20 -20 -20 -18 -17 -18 -18 -18 -18 -17 -16 -16 -15 -14 -11 -9 -4 4 6 5
4 3 3 4 4 4 3 -3 -5 -5 2 2 2 2 -6 -1 -3 -9 -9 -18 -26 -33 -31 -33 -32 -32 -32 -30 -29 -29 -29 -27 -26 -26 -25 -25 -24 -24 -23 -22 -21 -19 -21 -21 -20 -19 -18 -18 -18 -18 -18 -18 -18 -18 -19 -17 -15 -13 -10 -6 -2 5 6
-4 -4 -9 -4 -0 2 2 1 0 -0 -1 -0 1 0 -0 -6 -13 -3 -4 -18 -30 -31 -32 -33 -33 -31 -31 -31 -29 -29 -28 -27 -27 -26 -26 -25 -25 -24 -24 -23 -21 -21 -22 -21 -21 -19 -19 -19 -19 -18 -19 -20 -20 -20 -19 -19 -16 -14 -12 -10 -7 -2 4
-19 -15 -14 -15 -14 -13 -12 -12 -12 -12 -12 -12 -12 -9 -5 -5 -23 -26 -27 -27 -31 -30 -32 -32 -32 -32 -30 -32 -31 -30 -29 -28 -29 -28 -27 -26 -26 -26 -25 -23 -22 -23 -23 -21 -20 -20 -21 -20 -19 -20 -20 -21 -22 -22 -22 -20 -18 -16 -14 -12 -9 -5 -2
-20 -19 -15 -15 -14 -14 -13 -13 -13 -13 -13 -2 2 -1 -8 -23 -25 -26 -29 -29 -32 -32 -31 -31 -31 -32 -30 -32 -32 -31 -31 -32 -30 -29 -28 -28 -27 -26 -25 -25 -24 -23 -23 -21 -21 -22 -21 -20 -20 -20 -21 -22 -22 -22 -21 -21 -19 -17 -14 -12 -10 -7 -5